TITAN 3C TRANSTAGE DEB, 26049

Orbit data source: Space-Track

TITAN 3C TRANSTAGE DEB, 26049 is space debris in HEO originally from a launch on Tue, 21 Dec 1965 UTC launched from the Air Force Eastern Test Range (AFETR). Debris objects in space refer to the collection of defunct objects orbiting the Earth. Examples of debris include non-operational satellites, rocket bodies, and fragments generated from explosions, collisions, or faulty payload assembly.

Loading next visibility...
Identifier
26049, 1965-108AH
Orbit
HEO
Country
Flag of USUS
Related business
Manufacturer
Unknown
Mission
Spacecraft
Bus & Motor
Unknown
Mass
Unknown
Launch date (UTC)
1965-12-21 (60 years ago)
Launch vehicle
Unknown
Launch site
Air Force Eastern Test Range (AFETR)
Object type
Payload
Rocket body
Debris
Shape & HBR
Unknown shape, 0.1 m
Radar Cross Section
Small (<0.1 m²)

Expand to show TLE details & history
Last TLE update: 1 week ago

TLE from 1 week ago
0 TITAN 3C TRANSTAGE DEB
1 26049U 65108AH  25283.88174667  .00023612  00000-0  18370-1 0  9992
2 26049  27.1985 137.8782 4800245  78.2623 330.0996  5.78923575 95614
Epoch: 2025-10-10T21:09Z
TLE epoch observation values (Epoch: 2025-10-10T21:09:42.912Z)
Latitude
-0.00005°
Longitude
160.74833°
Altitude
2,797.962 km
Speed
7.514 km/s
True Right ascension
09h 11m 35s
True Declination
0° 00' 00"
Sunlit
Object was in daylight at epoch
Visualization orbit readout
Latitude
Unknown
Longitude
Unknown
Altitude
Unknown
Speed
Unknown
Apparent Right ascension
Unknown
Apparent Declination
Unknown
Sunlit
N/A
Visualization observer readout
Local Sidereal Time
04:33:52
Azimuth
Unknown
Elevation
Unknown
Doppler factor
Unknown
Orbital elements
Apogee altitude
13,017.477 km
Perigee altitude
436.104 km
Semi-major axis
13,104.927 km
Eccentricity
0.48002
Inclination
27.1985°
RAAN
137.8782°
Arg. of periapsis
78.2623°
True anomaly
281.85942°
Mean anomaly
330.0996°
Eccentric anomaly
308.60735°
Mean motion
1.44674 °/min
Orbital period
248.83 mins
BSTAR
0.01837

Documentation

Showing up to 5 results
|